Find Starlink 6229

NORAD ID: 57093 Int'l Des: 2023-088 Owner: SPXS Country: US Constellation: starlink operational
LEOCIRCULAR

Live Position

Loading 3D Globe...

About Starlink 6229

Description loading...

Upcoming Passes

Passes for default location (London). Set your location on the main map for personalized predictions.

Altitude History

Loading altitude history...

Two-Line Element Set

1 57093U 23088AX 26104.12631152 .00000145 00000-0 15082-4 0 9999
2 57093 43.0018 255.6680 0001183 271.1797 88.8919 15.26741811155922
Epoch: Apr 14, 2026 • Age: 7 hours

Current Status

Altitude 487.0 km
Velocity 7.63 km/s
Sub-Earth Point 31.41°N, 42.63°E
Launch Date Jun 22, 2023
Age 2.8 years
Type internet

Technical Details

Classification Payload
Mass 305.00 kg
Dry Mass 290.00 kg
Total Mass 305.00 kg
Length 0.20 m
Diameter 2.80 m
Span 9.00 m
Shape Box + pan
Manufacturer SPXS
Bus Type Starlink
Phase Status In Orbit
Owner/State SPXS/US

Most Searched